CW1187 Weather Reports


Display with metric or nautical units.
time (UTC)temp
F
wind
direction
speed
MPH
gust
MPH
rain 1hr
in
rain 24hr
in
rain mn
in
humidity
%
barometer
mb
20260507004020 52 0 0.0 3.0 0.00 0.70 0.21 69 1014.1
20260507003517 53 0 0.0 3.0 0.00 0.70 0.21 69 1014.0
20260507003039 53 288 0.0 3.0 0.00 0.70 0.21 68 1013.9
20260507002518 53 288 0.0 3.0 0.00 0.70 0.21 67 1013.8
20260507002020 53 0 0.0 3.0 0.00 0.70 0.21 67 1013.8
20260507001605 54 288 1.0 4.0 0.00 0.70 0.21 65 1013.7
20260507001024 54 288 1.0 6.0 0.00 0.70 0.21 64 1013.6
20260507000519 54 281 2.0 6.0 0.00 0.70 0.21 63 1013.6
20260507000042 55 286 2.0 6.0 0.00 0.70 0.21 62 1013.5
20260506235523 55 288 2.0 8.0 0.00 0.95 0.21 65 1013.5
20260506235019 55 290 3.0 8.0 0.00 0.95 0.21 57 1013.5
20260506234540 56 277 2.0 6.0 0.00 0.95 0.21 57 1013.5
20260506234019 56 288 2.0 6.0 0.00 0.95 0.21 58 1013.3
20260506233520 56 284 1.0 5.0 0.00 0.95 0.21 60 1013.3
20260506233039 56 0 1.0 6.0 0.00 0.95 0.21 62 1013.3
20260506232517 56 273 2.0 6.0 0.00 0.95 0.21 63 1013.3
20260506232020 56 291 1.0 4.0 0.00 0.95 0.21 67 1013.3
20260506231542 56 281 1.0 4.0 0.00 0.95 0.21 63 1013.3
20260506231023 56 289 1.0 6.0 0.00 0.95 0.21 62 1013.5
20260506230522 56 284 1.0 6.0 0.00 0.95 0.21 63 1013.5
20260506230052 56 288 1.0 4.0 0.00 0.95 0.21 63 1013.5
20260506225520 56 292 1.0 4.0 0.00 1.12 0.21 61 1013.4
20260506225019 56 290 2.0 4.0 0.00 1.12 0.21 62 1013.4
20260506224535 56 290 2.0 4.0 0.00 1.12 0.21 61 1013.6
20260506224021 56 292 1.0 4.0 0.00 1.12 0.21 63 1013.6
20260506223519 56 302 1.0 4.0 0.00 1.12 0.21 61 1013.6
20260506223038 57 299 1.0 4.0 0.00 1.12 0.21 60 1013.5
20260506222523 57 294 2.0 6.0 0.00 1.12 0.21 59 1013.6
20260506222021 57 296 2.0 6.0 0.00 1.12 0.21 58 1013.8
20260506221535 57 275 1.0 4.0 0.00 1.12 0.21 62 1013.8
20260506221021 57 286 2.0 5.0 0.00 1.12 0.21 58 1013.8
20260506220521 57 291 1.0 7.0 0.00 1.12 0.21 58 1013.8
20260506220041 57 286 2.0 7.0 0.00 1.12 0.21 59 1013.7
20260506215521 58 267 2.0 4.0 0.00 1.12 0.21 58 1013.7
20260506215020 58 305 2.0 4.0 0.00 1.12 0.21 58 1013.8
20260506214539 58 252 1.0 3.0 0.00 1.12 0.21 59 1013.8
20260506214019 58 261 1.0 5.0 0.00 1.12 0.21 57 1013.8
20260506213523 58 275 1.0 5.0 0.00 1.12 0.21 57 1013.7
20260506213038 58 250 1.0 4.0 0.00 1.12 0.21 60 1013.5
20260506212521 58 252 1.0 6.0 0.00 1.12 0.21 58 1013.4
20260506212020 58 0 1.0 6.0 0.00 1.12 0.21 60 1013.4
20260506211535 58 257 2.0 5.0 0.00 1.12 0.21 58 1013.4
20260506211019 58 254 1.0 5.0 0.00 1.12 0.21 60 1013.5
20260506210522 58 259 2.0 5.0 0.00 1.12 0.21 64 1013.6
20260506210048 58 261 1.0 6.0 0.00 1.12 0.21 59 1013.6
20260506205520 58 255 1.0 6.0 0.00 1.12 0.21 61 1013.4
20260506205020 58 0 2.0 6.0 0.00 1.12 0.21 60 1013.6
20260506204545 58 272 2.0 4.0 0.00 1.12 0.21 59 1013.4
20260506204019 58 277 1.0 4.0 0.00 1.12 0.21 59 1013.6
20260506203520 58 288 2.0 4.0 0.00 1.12 0.21 57 1013.7
20260506203041 58 0 2.0 6.0 0.00 1.12 0.21 62 1013.6
20260506202523 58 289 1.0 7.0 0.00 1.12 0.21 58 1013.6
20260506202020 58 288 2.0 7.0 0.00 1.12 0.21 60 1013.8
20260506201540 59 303 3.0 8.0 0.00 1.12 0.21 59 1013.8
20260506201020 58 286 3.0 8.0 0.00 1.12 0.21 58 1013.8
20260506200518 58 291 2.0 7.0 0.00 1.12 0.21 60 1013.6
20260506200039 58 292 3.0 7.0 0.00 1.12 0.21 59 1013.6
20260506195520 58 290 2.0 5.0 0.00 1.14 0.21 58 1013.8
20260506195020 58 360 2.0 6.0 0.00 1.14 0.21 58 1013.7
20260506194539 58 294 1.0 6.0 0.00 1.14 0.21 61 1013.8
20260506194019 57 299 2.0 7.0 0.00 1.14 0.21 61 1013.6
20260506193520 57 311 2.0 7.0 0.00 1.14 0.21 60 1013.7
20260506193044 57 262 2.0 7.0 0.00 1.14 0.21 61 1013.7
20260506192519 57 279 2.0 7.0 0.00 1.14 0.21 59 1013.7
20260506192020 56 275 1.0 4.0 0.00 1.14 0.21 60 1013.7
20260506191538 56 288 0.0 5.0 0.00 1.14 0.21 58 1013.5
20260506191020 56 295 2.0 8.0 0.00 1.14 0.21 59 1013.5
20260506190520 57 292 3.0 8.0 0.00 1.14 0.21 59 1013.5
20260506190039 56 0 1.0 5.0 0.00 1.14 0.21 57 1013.5
20260506185519 56 294 1.0 8.0 0.00 1.25 0.21 61 1013.5
20260506185019 56 336 2.0 8.0 0.00 1.25 0.21 56 1013.6
20260506184542 56 0 1.0 8.0 0.00 1.25 0.21 56 1013.6
20260506184019 57 355 3.0 8.0 0.00 1.25 0.21 55 1013.6
20260506183520 57 333 3.0 8.0 0.00 1.25 0.21 56 1013.6
20260506183044 57 344 1.0 4.0 0.00 1.25 0.21 60 1013.7
20260506182518 57 0 0.0 6.0 0.00 1.25 0.21 58 1013.7
20260506182020 58 300 2.0 6.0 0.00 1.25 0.21 59 1013.8
20260506181545 58 287 2.0 6.0 0.00 1.25 0.21 58 1013.7
20260506181023 58 276 2.0 4.0 0.00 1.25 0.21 63 1013.7
20260506180519 58 279 2.0 6.0 0.00 1.25 0.21 59 1013.7
20260506180036 58 309 2.0 7.0 0.00 1.25 0.21 61 1013.7
20260506175518 57 279 1.0 7.0 0.00 1.25 0.21 61 1013.7
20260506175017 57 306 3.0 6.0 0.00 1.25 0.21 58 1013.6
20260506174539 56 309 0.0 5.0 0.00 1.25 0.21 59 1013.5
20260506174022 56 349 0.0 5.0 0.00 1.25 0.21 65 1013.6
20260506173519 56 346 2.0 5.0 0.00 1.25 0.21 62 1013.7
20260506173036 56 311 1.0 6.0 0.00 1.25 0.21 58 1013.7
20260506172519 56 322 1.0 6.0 0.00 1.25 0.21 57 1013.8
20260506172020 56 315 2.0 4.0 0.00 1.25 0.21 59 1013.9
20260506171534 57 341 1.0 6.0 0.00 1.25 0.21 62 1014.1
20260506171023 57 307 1.0 6.0 0.00 1.25 0.21 62 1014.0
20260506170520 57 0 1.0 4.0 0.00 1.25 0.21 67 1014.0
20260506170046 56 267 1.0 6.0 0.00 1.25 0.21 64 1014.0
20260506165522 56 298 1.0 6.0 0.00 1.25 0.21 63 1014.0
20260506165020 56 328 2.0 6.0 0.00 1.25 0.21 61 1013.9
20260506164554 56 0 0.0 5.0 0.00 1.25 0.21 60 1013.8
20260506164020 56 336 2.0 8.0 0.00 1.25 0.21 63 1013.7
20260506163518 55 336 3.0 8.0 0.00 1.25 0.21 62 1013.7
20260506163042 56 326 0.0 6.0 0.00 1.25 0.21 66 1013.8
20260506162517 56 334 2.0 6.0 0.00 1.25 0.21 61 1013.7
20260506162019 56 295 2.0 6.0 0.00 1.25 0.21 61 1013.7
20260506161538 55 298 3.0 7.0 0.00 1.25 0.21 61 1013.5
20260506161023 55 324 1.0 7.0 0.00 1.25 0.21 64 1013.5
20260506160520 54 319 2.0 6.0 0.00 1.25 0.21 63 1013.6
20260506160050 54 323 3.0 6.0 0.00 1.25 0.21 64 1013.7
20260506155520 53 322 2.0 6.0 0.00 1.25 0.21 66 1013.7
20260506155020 53 344 3.0 6.0 0.00 1.25 0.21 62 1013.8
20260506154536 53 346 1.0 9.0 0.00 1.25 0.21 62 1013.7
20260506154020 53 355 1.0 9.0 0.00 1.25 0.21 62 1013.7
20260506153519 53 44 3.0 9.0 0.00 1.25 0.21 63 1013.8
20260506153038 54 345 1.0 9.0 0.00 1.25 0.21 63 1013.9
20260506152519 53 313 3.0 9.0 0.00 1.25 0.21 64 1013.9
20260506152020 53 337 1.0 5.0 0.00 1.25 0.21 71 1013.6
20260506151540 53 271 2.0 5.0 0.00 1.25 0.21 65 1013.4
20260506151020 53 319 2.0 7.0 0.00 1.25 0.21 66 1013.6
20260506150520 53 0 2.0 10.0 0.00 1.25 0.21 64 1013.8
20260506150045 53 332 2.0 10.0 0.00 1.25 0.21 64 1013.6
20260506145520 52 303 4.0 10.0 0.00 1.25 0.21 64 1013.3
20260506145021 52 360 4.0 10.0 0.00 1.25 0.21 66 1013.0
20260506144535 52 10 4.0 11.0 0.00 1.25 0.21 68 1013.1
20260506144020 52 352 4.0 11.0 0.00 1.25 0.21 66 1013.2
20260506143526 51 342 3.0 9.0 0.00 1.25 0.21 68 1013.2
20260506143040 51 318 4.0 9.0 0.00 1.25 0.21 65 1013.1
20260506142519 51 335 3.0 9.0 0.00 1.25 0.21 68 1013.0
20260506142019 51 327 3.0 9.0 0.00 1.25 0.21 66 1012.8
20260506141544 51 304 3.0 8.0 0.00 1.25 0.21 66 1012.7
20260506141023 51 0 1.0 6.0 0.00 1.25 0.21 72 1012.5
20260506140520 51 343 2.0 6.0 0.00 1.25 0.21 68 1012.5
20260506140039 50 0 0.0 6.0 0.00 1.25 0.21 68 1012.5
20260506135533 50 350 1.0 6.0 0.00 1.25 0.21 69 1012.3
20260506135017 50 5 2.0 6.0 0.00 1.25 0.21 71 1012.5
20260506134538 49 321 3.0 5.0 0.00 1.25 0.21 70 1012.5
20260506134020 49 355 1.0 4.0 0.00 1.25 0.21 77 1012.5
20260506133519 49 331 1.0 4.0 0.00 1.25 0.21 77 1012.9
20260506133038 49 328 1.0 5.0 0.00 1.25 0.21 74 1012.8
20260506132526 49 327 2.0 6.0 0.00 1.25 0.21 75 1012.8
20260506132020 48 288 0.0 6.0 0.00 1.25 0.21 75 1012.7
20260506131539 48 352 1.0 6.0 0.00 1.25 0.21 79 1012.4
20260506131020 48 322 1.0 4.0 0.00 1.25 0.21 79 1012.4
20260506130522 47 323 2.0 4.0 0.00 1.25 0.21 83 1012.5
20260506130039 47 323 1.0 4.0 0.00 1.25 0.21 79 1012.7
20260506125519 47 327 2.0 6.0 0.00 1.25 0.21 80 1012.6
20260506125019 47 281 2.0 6.0 0.00 1.25 0.21 82 1012.8
20260506124538 47 269 1.0 4.0 0.00 1.25 0.21 83 1012.7
20260506124019 46 0 1.0 3.0 0.00 1.25 0.21 83 1012.5
20260506123520 46 320 1.0 3.0 0.00 1.25 0.21 84 1012.5
20260506123040 46 332 1.0 3.0 0.00 1.25 0.21 84 1012.1
20260506122520 45 0 1.0 3.0 0.00 1.25 0.21 84 1012.2
20260506122020 45 0 1.0 3.0 0.00 1.25 0.21 83 1012.0
20260506121533 45 337 1.0 3.0 0.00 1.25 0.21 84 1011.8
20260506121020 45 0 0.0 2.0 0.00 1.25 0.21 84 1011.8
20260506120520 45 0 0.0 3.0 0.00 1.25 0.21 85 1011.8
20260506120055 45 337 1.0 3.0 0.00 1.25 0.21 85 1011.7
20260506115523 45 339 1.0 3.0 0.00 1.25 0.21 86 1011.6
20260506115017 45 340 0.0 2.0 0.00 1.25 0.21 87 1011.5
20260506114538 44 0 0.0 4.0 0.00 1.25 0.21 87 1011.4
20260506114019 44 341 1.0 4.0 0.00 1.25 0.21 87 1011.3
20260506113519 44 0 0.0 3.0 0.00 1.25 0.21 86 1011.1
20260506113039 44 342 0.0 3.0 0.00 1.25 0.21 85 1011.0
20260506112519 44 344 1.0 5.0 0.00 1.25 0.21 85 1010.7
20260506112019 44 348 1.0 5.0 0.00 1.25 0.21 85 1010.4
20260506111544 43 0 1.0 5.0 0.00 1.25 0.21 85 1010.7
20260506111019 43 342 3.0 5.0 0.00 1.25 0.21 85 1010.5
20260506110520 43 339 2.0 5.0 0.00 1.25 0.21 85 1010.4
20260506110032 43 347 2.0 4.0 0.00 1.25 0.21 85 1010.5
20260506105522 43 350 1.0 3.0 0.00 1.25 0.21 84 1010.4
20260506105020 43 349 1.0 5.0 0.00 1.25 0.21 85 1010.3
20260506104550 43 0 1.0 5.0 0.00 1.25 0.21 85 1010.1
20260506104024 43 344 1.0 5.0 0.00 1.25 0.21 86 1010.1
20260506103522 43 337 2.0 5.0 0.00 1.25 0.21 86 1010.1
20260506103045 43 336 2.0 5.0 0.00 1.25 0.21 86 1010.2
20260506102522 43 342 1.0 4.0 0.00 1.25 0.21 86 1010.0
20260506102020 43 336 1.0 4.0 0.00 1.25 0.21 86 1010.4
20260506101540 43 350 1.0 4.0 0.00 1.25 0.21 86 1010.4
20260506101019 43 0 1.0 5.0 0.00 1.25 0.21 85 1010.3
20260506100521 43 332 2.0 5.0 0.00 1.25 0.21 85 1009.9
20260506100042 43 342 2.0 5.0 0.00 1.25 0.21 85 1010.1
20260506095520 43 344 2.0 4.0 0.00 1.27 0.21 85 1010.0
20260506095020 43 340 1.0 5.0 0.00 1.27 0.21 85 1009.7
20260506094535 43 338 1.0 5.0 0.00 1.27 0.21 85 1009.7
20260506094019 43 352 2.0 5.0 0.00 1.27 0.21 86 1009.7
20260506093520 43 339 1.0 3.0 0.00 1.27 0.21 86 1009.7
20260506093039 43 355 0.0 2.0 0.00 1.27 0.21 86 1009.3
20260506092520 43 355 0.0 6.0 0.00 1.27 0.21 86 1009.4
20260506092020 43 355 1.0 6.0 0.00 1.27 0.21 86 1009.2
20260506091540 43 344 3.0 8.0 0.00 1.27 0.21 86 1009.4
20260506091020 43 355 3.0 9.0 0.00 1.27 0.21 86 1009.5
20260506090519 43 341 3.0 9.0 0.00 1.27 0.21 86 1009.7
20260506090041 43 360 2.0 9.0 0.00 1.27 0.21 86 1009.7
20260506085519 43 329 3.0 10.0 0.00 1.42 0.21 86 1009.8
20260506085019 43 9 4.0 10.0 0.00 1.42 0.21 86 1009.9
20260506084611 43 355 4.0 9.0 0.00 1.42 0.21 87 1009.7
20260506084020 43 355 3.0 8.0 0.00 1.42 0.21 87 1009.7
20260506083519 43 5 2.0 4.0 0.00 1.42 0.21 86 1009.2
20260506083038 43 5 0.0 4.0 0.00 1.42 0.21 86 1009.0
20260506082519 43 5 1.0 5.0 0.00 1.42 0.21 86 1008.8
20260506082020 43 360 2.0 6.0 0.00 1.42 0.21 86 1008.6
20260506081542 43 348 1.0 7.0 0.00 1.42 0.21 87 1008.6
20260506081020 43 355 3.0 7.0 0.01 1.42 0.21 86 1009.2
20260506080520 43 355 2.0 5.0 0.01 1.42 0.21 86 1009.2
20260506073519 43 22 2.0 8.0 0.03 1.56 0.21 86 1008.3
20260506073038 43 20 2.0 9.0 0.04 1.56 0.21 86 1008.8
20260506072519 43 13 2.0 10.0 0.05 1.56 0.21 87 1008.9
20260506072020 43 15 2.0 10.0 0.05 1.56 0.21 87 1008.9
20260506071535 43 23 2.0 8.0 0.04 1.55 0.20 88 1008.7
20260506071020 43 53 2.0 4.0 0.04 1.55 0.20 89 1008.8
20260506070520 44 42 1.0 3.0 0.04 1.55 0.20 89 1008.7
20260506062021 44 348 2.0 8.0 0.02 1.61 0.16 89 1009.1
20260506061539 44 348 3.0 8.0 0.02 1.61 0.16 88 1009.1
20260506061021 44 19 3.0 8.0 0.03 1.61 0.16 89 1009.1
20260506060521 44 15 3.0 8.0 0.04 1.61 0.16 89 1009.0
20260506051020 46 5 3.0 10.0 0.09 1.58 0.13 91 1008.3
20260506050521 46 352 3.0 10.0 0.09 1.57 0.12 91 1008.5
20260506045019 46 9 3.0 7.0 0.16 1.56 0.11 91 1008.9
20260506044540 46 35 1.0 3.0 0.17 1.55 0.10 91 1008.8
20260506044019 46 0 1.0 5.0 0.18 1.54 0.09 91 1008.8
20260506043517 46 42 1.0 5.0 0.18 1.53 0.08 91 1008.5
20260506043044 46 27 1.0 6.0 0.18 1.53 0.08 91 1008.5
20260506042519 46 0 2.0 7.0 0.18 1.52 0.07 91 1008.5
20260506042017 46 55 4.0 7.0 0.18 1.51 0.06 90 1007.7
20260506041541 46 46 2.0 5.0 0.18 1.50 0.05 90 1007.8
20260506041020 46 29 2.0 8.0 0.17 1.49 0.04 91 1008.2
20260506040517 46 42 2.0 14.0 0.15 1.47 0.02 90 1008.7
20260506040040 47 34 3.0 14.0 0.14 1.45 0.00 90 1009.0
20260506035519 47 325 6.0 11.0 0.14 1.42 1.42 91 1009.2
20260506035020 47 342 2.0 5.0 0.16 1.40 1.40 91 1008.6
20260506034539 47 355 1.0 5.0 0.19 1.38 1.38 91 1008.6
20260506034019 47 9 2.0 7.0 0.19 1.36 1.36 91 1008.4
20260506033517 47 49 3.0 8.0 0.19 1.35 1.35 90 1007.8
20260506033033 47 52 3.0 8.0 0.19 1.35 1.35 91 1007.5
20260506032521 47 55 2.0 4.0 0.18 1.34 1.34 91 1007.5
20260506032019 47 30 2.0 5.0 0.16 1.32 1.32 91 1007.8
20260506031610 47 11 2.0 6.0 0.16 1.32 1.32 91 1008.1
20260506031020 47 51 3.0 6.0 0.16 1.32 1.32 91 1007.7
20260506030520 47 50 2.0 6.0 0.16 1.32 1.32 90 1007.7
20260506030040 47 31 2.0 11.0 0.15 1.31 1.31 90 1008.1
20260506025519 48 14 3.0 11.0 0.12 1.28 1.28 91 1008.7
20260506025019 48 345 6.0 11.0 0.08 1.23 1.23 91 1009.1
20260506024539 48 355 4.0 10.0 0.03 1.17 1.17 91 1008.9
20260506024017 48 343 4.0 10.0 0.02 1.16 1.16 91 1008.2
20260506023520 48 49 2.0 8.0 0.01 1.16 1.16 91 1007.7
20260506023052 47 59 2.0 8.0 0.02 1.16 1.16 91 1007.5
20260506022520 48 38 4.0 8.0 0.03 1.16 1.16 91 1007.3
20260506022026 48 42 1.0 7.0 0.04 1.16 1.16 91 1007.7
20260506021600 48 41 3.0 7.0 0.04 1.16 1.16 91 1007.4
20260506021023 48 54 2.0 6.0 0.06 1.16 1.16 91 1007.6
20260506020519 48 44 2.0 5.0 0.08 1.16 1.16 91 1007.4
20260506020039 48 57 2.0 6.0 0.11 1.16 1.16 91 1007.4
20260506015523 48 42 3.0 6.0 0.12 1.16 1.16 90 1007.5
20260506015021 48 58 2.0 4.0 0.11 1.15 1.15 91 1007.9
20260506014539 48 44 2.0 5.0 0.11 1.15 1.15 91 1007.9
20260506014117 48 55 1.0 5.0 0.11 1.15 1.15 91 1007.9
20260506013520 48 49 2.0 5.0 0.11 1.15 1.15 91 1007.6
20260506013038 48 40 1.0 3.0 0.11 1.14 1.14 91 1007.8
20260506012517 48 355 1.0 3.0 0.10 1.12 1.12 90 1007.9
20260506012016 48 326 1.0 3.0 0.12 1.12 1.12 90 1008.2
20260506011534 48 33 1.0 5.0 0.12 1.11 1.11 90 1008.1
20260506011017 48 30 2.0 5.0 0.11 1.10 1.10 90 1007.9
20260506010520 48 43 2.0 3.0 0.10 1.07 1.07 90 1007.9
20260506010040 48 30 1.0 3.0 0.09 1.04 1.04 90 1008.1
20260506005521 48 19 1.0 8.0 0.09 1.04 1.04 90 1008.2
20260506005025 48 14 1.0 8.0 0.11 1.04 1.04 91 1008.0
20260506004539 48 23 2.0 8.0 0.13 1.04 1.04 91 1007.9